Location: Unspecified
(0.0000°N, 0.0000°E)
Time: 11:07:27
(UTC+00:00)

SR - All Passes

Search period start: 30 July 2014 00:00
Search period end: 09 August 2014 00:00
Orbit: 575 x 890 km, 66.7° (Epoch: 30 July)

Date Brightness Start Highest point End Pass type
(mag) Time Alt. Az. Time Alt. Az. Time Alt. Az.
30 Jul - 08:56:55 10° S 09:01:10 40° ESE 09:05:45 10° NE daylight
30 Jul - 21:23:42 10° NNW 21:29:17 71° WSW 21:34:25 10° SSE visible
31 Jul - 08:10:31 10° SE 08:13:09 15° ESE 08:15:54 10° ENE daylight
31 Jul - 09:51:07 10° SW 09:54:58 26° WNW 09:59:06 10° NNW daylight
31 Jul - 20:35:46 10° N 20:41:09 47° ENE 20:46:07 10° SE visible
31 Jul - 22:21:37 10° W 22:22:56 11° WSW 22:24:13 10° WSW night (unlit)
01 Aug - 09:02:14 10° SSW 09:06:47 70° WNW 09:11:45 10° NNE daylight
01 Aug - 19:48:58 10° NNE 19:52:55 20° ENE 19:56:41 10° ESE visible
01 Aug - 21:30:16 10° NW 21:34:53 28° WSW 21:39:14 10° SSW visible
02 Aug - 08:14:25 10° S 08:18:43 42° ESE 08:23:22 10° NE daylight
02 Aug - 20:41:19 10° NNW 20:46:51 69° WSW 20:51:56 10° SSE visible
03 Aug - 07:27:54 10° SE 07:30:42 16° ESE 07:33:36 10° ENE daylight
03 Aug - 09:08:41 10° SW 09:12:31 25° WNW 09:16:38 10° NNW daylight
03 Aug - 19:53:21 10° N 19:58:43 48° ENE 20:03:40 10° SE visible
03 Aug - 21:39:47 10° W 21:40:29 10° WSW 21:41:11 10° WSW visible
04 Aug - 08:19:46 10° SSW 08:24:20 68° WNW 08:29:20 10° NNE daylight
04 Aug - 19:06:29 10° NNE 19:10:29 20° ENE 19:14:17 10° ESE visible
04 Aug - 20:47:55 10° NW 20:52:27 27° WSW 20:56:42 10° SSW visible
05 Aug - 07:31:54 10° S 07:36:15 44° ESE 07:40:59 10° NE daylight
05 Aug - 19:58:55 10° NNW 20:04:24 66° WSW 20:09:27 10° SSE visible
06 Aug - 06:45:18 10° SSE 06:48:14 17° ESE 06:51:18 10° ENE daylight
06 Aug - 08:26:15 10° WSW 08:30:04 25° WNW 08:34:09 10° NNW daylight
06 Aug - 19:10:55 10° N 19:16:17 50° ENE 19:21:13 10° SE visible
07 Aug - 07:37:17 10° SSW 07:41:52 65° WNW 07:46:54 10° NNE daylight
07 Aug - 18:24:00 10° NNE 18:28:03 21° ENE 18:31:53 10° ESE visible
07 Aug - 20:05:35 10° NW 20:10:00 26° WSW 20:14:09 10° SSW visible
08 Aug - 06:49:23 10° S 06:53:47 45° ESE 06:58:35 10° NE daylight
08 Aug - 19:16:31 10° NNW 19:21:58 64° WSW 19:26:57 10° S visible
